User: anonymous   Login
Location: Pine Mountain Observatory
(43.7910°N, 120.9377°W)
Time: 16:04:32
(UTC-08:00)
Language:

Meteor 2-19 Rocket - Orbit

View from above orbital plane
View from above orbital plane
View from above satellite
View from above satellite

Ground track
Ground track

The orbit data is extracted from the following two-line orbital elements,

1 20671U 90057B   18022.03319996  .00000014  00000-0 -11145-5 0  9993
2 20671  82.5456 198.1542 0016354  64.5550 295.7301 13.84611992393356
Epoch (UTC): 22 January 2018 00:47:48
Eccentricity: 0.0016354
inclination: 82.5456°
perigee height: 935 km
apogee height: 959 km
right ascension of ascending node: 198.1542°
argument of perigee: 64.5550°
revolutions per day: 13.84611992
mean anomaly at epoch: 295.7301°
orbit number at epoch: 39335

The dashed part of the orbit path shows where the satellite is in the earth's shadow,  

DLR